Location: *
(46.1333°S, 161.2167°W)
Time: 12:38:55
(UTC+00:00)

Daily predictions for brighter satellites

Satellite Brightness Start Highest point End
(mag) Time Altitude Azimuth Time Altitude Azimuth Time Altitude Azimuth
SJ 16-02 4.3 14:53:54 10° NE 14:53:54 10° NE 14:53:55 10° NE
Cosmos 2263 Rocket 3.9 15:07:39 23° SSE 15:09:42 29° SE 15:14:38 10° ENE
NOSS 3-1 (C) 3.8 15:18:59 52° NNE 15:18:59 52° NNE 15:23:00 10° NE
USA 267 3.8 15:17:47 10° ESE 15:24:13 52° NE 15:27:13 31° NNW
Atlas Centaur 2 4.3 15:27:05 24° NNW 15:28:59 26° N 15:35:22 10° NE
Cosmos 990 Rocket 4.3 15:30:21 61° NE 15:30:21 61° NE 15:34:41 10° NNE
CZ-4C R/B 3.8 15:35:01 28° SSW 15:35:01 28° SSW 15:39:28 10° SSE
Cosmos 1980 Rocket 2.5 15:32:44 37° N 15:34:56 65° ENE 15:40:32 10° SSE
USA 229 DEB 3.4 15:35:51 72° W 15:36:22 76° NW 15:42:52 10° NNE
USA 229 3.4 15:35:56 72° W 15:36:29 77° NW 15:42:59 10° NNE
Cosmos 1763 Rocket 3.7 15:35:44 49° N 15:37:03 70° ENE 15:42:21 10° SSE
Okean O Rocket 2.1 15:32:50 10° NNE 15:37:15 59° ESE 15:37:18 59° ESE
Cosmos 2369 3.8 15:38:47 66° S 15:38:47 66° S 15:43:50 10° SSE
BREEZE-M R/B 4.3 15:38:52 57° SW 15:40:15 69° S 15:52:57 10° E
PAYLOAD B 4.1 15:39:36 10° N 15:45:08 77° WNW 15:45:23 75° WSW
Cosmos 1898 Rocket 3.4 15:45:46 77° NW 15:45:46 77° NW 15:50:53 10° NNE
NOSS 3-1 (A) 3.2 15:47:30 63° SW 15:48:31 84° NW 15:54:02 10° NNE
Aureole 3 Rocket 3.6 15:50:04 47° SE 15:50:41 53° E 15:55:13 10° NNE
Cosmos 468 Rocket 3.8 15:50:36 77° WNW 15:50:52 80° WSW 15:56:11 10° SSE
Cosmos 2026 Rocket 4.0 15:45:59 10° N 15:52:09 81° E 15:58:29 10° S
NOSS 2-3 (C) 4.3 15:51:02 52° SW 15:52:43 81° NW 15:58:08 10° NNE
Cosmos 2278 3.6 15:56:07 47° NW 15:57:49 76° WSW 16:03:33 10° SSE
Cosmos 1570 Rocket 4.5 15:54:09 10° N 15:59:27 63° ENE 16:04:49 10° SSE
USA 234 3.5 15:53:13 10° ENE 15:59:44 65° SSE 16:02:51 33° SW
SL-16 R/B 4.0 15:54:56 10° NNE 15:59:52 31° ENE 16:04:51 10° SE
Cosmos 540 Rocket 4.1 15:55:10 10° N 16:00:14 56° ENE 16:05:22 10° SSE
Cosmos 1697 Rocket 3.0 16:02:54 45° SW 16:02:54 45° SW 16:07:51 10° SSE
SMAP 3.1 15:59:22 10° NNE 16:04:04 80° ESE 16:07:02 23° S
Cosmos 1092 Rocket 3.9 15:59:02 10° NNW 16:05:12 63° WSW 16:11:24 10° S
BREEZE-M DEB (TANK) 4.2 16:06:48 16° N 16:06:48 16° N 16:07:43 10° NNE
Cosmos 841 Rocket 3.9 16:00:47 10° N 16:06:01 66° ENE 16:11:20 10° SSE
ATLAS 2AS CENTAUR R/B 4.4 16:04:40 14° SSW 16:07:15 17° S 16:11:26 10° SE
CZ-4 R/B 4.0 16:05:00 10° ENE 16:08:06 20° ESE 16:11:14 10° SSE
CZ-4B R/B 3.2 16:03:26 10° N 16:08:59 68° WNW 16:12:45 22° SSW
Cosmos 372 Rocket 4.5 16:05:26 18° S 16:09:10 58° ESE 16:14:13 10° NE
Timation 1 Rocket 4.3 16:08:50 37° SW 16:11:19 70° WNW 16:17:18 10° NNE
Cosmos 1689 Rocket 3.1 16:08:23 10° SSE 16:11:23 46° E 16:14:20 10° N
Radarsat Rocket 4.3 16:06:51 10° N 16:14:05 63° WNW 16:20:00 13° SSW
Cosmos 1953 2.2 16:14:22 66° SW 16:14:48 75° W 16:18:49 10° N
Lacrosse 5 rocket 3.0 16:16:13 21° S 16:16:13 21° S 16:18:45 10° SE
Cosmos 1937 Rocket 3.5 16:15:36 44° SW 16:16:58 59° WNW 16:22:03 10° N
Cosmos 1908 3.8 16:17:14 13° S 16:20:40 56° ESE 16:24:27 10° NNE
YAOGAN 6 2.4 16:18:30 10° N 16:22:06 79° WNW 16:22:43 59° SSW
Cosmos 1025 Rocket 3.5 16:23:13 40° SW 16:23:13 40° SW 16:26:29 10° S
ADEOS Rocket 3.3 16:19:00 10° SSE 16:24:31 60° E 16:30:05 10° N
Meteor 2-13 Rocket 4.5 16:20:06 10° NNW 16:26:08 56° WSW 16:32:18 10° S
SJ 16-02 3.6 16:30:57 12° NW 16:30:57 12° NW 16:31:22 10° NNW
ASTEX 1 3.7 16:23:12 10° NNE 16:28:06 68° E 16:33:04 10° S
Cosmos 1655 Rocket 4.4 16:22:21 10° N 16:28:33 68° E 16:34:50 10° SSE
COSMO-SKYMED 1 3.9 16:27:30 10° SSE 16:31:43 42° E 16:35:53 10° N
AQUARIUS 4.2 16:28:01 10° N 16:32:30 61° W 16:35:53 18° SSW
Cosmos 2227 4.1 16:30:35 22° SW 16:34:22 69° WNW 16:40:00 10° NNE
Meteor 1-16 Rocket 4.2 16:31:34 10° SSW 16:37:24 65° W 16:42:58 10° N
ATLAS CENTAUR R/B 3.5 16:35:12 11° SSW 16:38:58 26° SE 16:43:03 10° E
IRS-1C Rocket 4.1 16:33:52 10° NNE 16:39:10 88° ESE 16:44:33 10° SSW
Meteor 2-5 Rocket 4.4 16:34:16 10° N 16:39:44 57° E 16:45:13 10° SSE
Cosmos 2322 Rocket 3.1 16:34:16 10° N 16:39:49 53° ENE 16:45:24 10° SE
YAOGAN 1 4.1 16:39:03 10° NE 16:43:03 36° ESE 16:47:05 10° S
Cosmos 1726 3.1 16:43:49 29° WNW 16:43:49 29° WNW 16:46:32 10° NNW
Cosmos 1536 Rocket 4.0 16:39:18 10° NW 16:43:21 36° WSW 16:47:27 10° S
Meteor 2-8 Rocket 4.4 16:40:10 10° SSW 16:46:18 69° W 16:52:24 10° N
Aureole 3 3.4 16:41:57 10° S 16:46:48 89° W 16:50:32 10° N
Cosmos 1674 2.6 16:46:08 10° NNW 16:49:53 62° WSW 16:53:42 10° S
Cosmos 2058 Rocket 4.2 16:46:33 10° S 16:50:53 47° ESE 16:55:12 10° NNE
Helios 1A Rocket 2.9 16:49:15 10° N 16:53:18 61° WNW 16:57:27 10° SSW
Cosmos 1553 Rocket 4.2 16:47:35 10° SSW 16:53:53 54° W 17:00:03 10° NNW
Cosmos 2263 Rocket 2.3 16:49:22 15° SW 16:53:58 55° WNW 16:59:31 10° N
Envisat 3.6 16:51:45 10° NNW 16:56:23 34° W 17:01:06 10° SSW
NOAA 12 4.4 16:53:36 10° N 16:58:36 43° W 17:03:40 10° SSW
Cosmos 1606 Rocket 3.4 16:54:41 10° SSW 16:59:05 74° W 17:03:26 10° N
Cosmos 2298 Rocket 4.0 16:53:59 10° SSW 16:59:21 71° WNW 17:04:38 10° N
Cosmos 1461 4.0 17:03:00 20° W 17:03:53 22° WNW 17:06:52 10° NNW
S3M 4.0 17:01:09 10° SSW 17:07:12 58° W 17:13:12 10° N
USA 267 3.4 17:00:48 10° SE 17:07:18 60° SSW 17:13:45 10° WNW
NOAA 11 4.2 17:02:30 10° N 17:08:02 73° WNW 17:13:39 10° SSW
Cosmos 1437 3.2 17:06:39 10° NW 17:09:27 33° WSW 17:12:18 10° S
Cosmos 2285 Rocket 4.2 17:03:25 10° SSW 17:09:45 54° WNW 17:15:59 10° N
ATLAS 5 CENTAUR R/B 2.9 17:02:35 10° NNW 17:09:47 78° NE 17:16:24 10° SE
Cosmos 2360 Rocket 3.2 17:05:28 10° N 17:10:55 50° ENE 17:16:24 10° SE
Cosmos 2208 Rocket 4.4 17:06:09 10° NW 17:11:05 41° WSW 17:16:04 10° S
Cosmos 1814 Rocket 4.4 17:08:18 10° NW 17:13:22 43° WSW 17:18:32 10° S
Okean O Rocket 3.2 17:11:12 10° NW 17:13:59 16° W 17:14:45 15° WSW
H-2A R/B 3.5 17:09:51 10° NE 17:14:20 35° ESE 17:18:55 10° S
Cosmos 883 Rocket 4.5 17:11:32 10° S 17:17:50 77° W 17:24:01 10° N
Cosmos 1980 Rocket 3.2 17:14:49 10° WNW 17:19:25 25° SW 17:24:02 10° S
SKYMED 2 3.6 17:15:26 10° S 17:19:49 62° WSW 17:24:09 10° NNW
Cosmos 2084 4.2 17:18:38 10° SSW 17:22:51 49° SE 17:27:02 10° ENE
CZ-4C R/B 4.2 17:20:29 10° SW 17:24:36 16° S 17:28:21 10° SSE
Cosmos 1726 Rocket 3.8 17:22:03 10° SSW 17:26:18 47° W 17:30:29 10° NNW
Okean 1-7 Rocket 3.6 17:23:19 10° NNW 17:27:48 80° W 17:32:23 10° S
Cosmos 1844 Rocket 3.0 17:25:06 10° SSW 17:30:51 70° ESE 17:36:32 10° NE
CREW DRAGON DEMO-1 DEB 3.9 17:27:56 10° NW 17:30:57 47° NE 17:34:00 10° ESE
CZ-2C R/B 3.8 17:27:04 10° NNE 17:32:05 57° ESE 17:37:28 10° S
Cosmos 1939 Rocket 3.4 17:35:43 10° NNW 17:39:35 40° W 17:43:32 10° SSW
CSL-04 Rocket 3.8 17:34:31 10° NNE 17:39:58 87° WNW 17:45:34 10° SSW
Ariane Rocket 4.3 17:35:27 10° NE 17:40:11 40° ESE 17:45:00 10° S
HJ-1C 3.7 17:37:25 10° NNE 17:40:46 71° ESE 17:44:09 10° S
Cosmos 1689 Rocket 4.3 17:41:47 10° SW 17:42:11 10° WSW 17:42:37 10° WSW
CZ-4 R/B 1.9 17:38:44 10° N 17:42:47 45° W 17:46:56 10° SSW
USA 234 3.8 17:36:36 10° NNE 17:42:54 47° NW 17:49:15 10° WSW
SL-16 R/B 2.5 17:38:21 10° NW 17:43:48 45° SW 17:49:18 10° SSE
CSL-04 Debris 4.2 17:40:16 10° N 17:45:41 76° WNW 17:51:11 10° SSW
Cosmos 1626 2.8 17:42:39 10° NW 17:46:08 35° WSW 17:49:39 10° S
Okean-O 3.5 17:44:28 10° NNW 17:48:29 32° W 17:52:33 10° SSW
Cosmos 2228 4.3 17:46:16 10° SW 17:49:36 22° W 17:52:54 10° NW
Cosmos 2278 Rocket 4.0 17:47:07 10° S 17:51:57 27° SE 17:56:45 10° ENE
Cosmos 2333 Rocket 3.8 17:47:15 10° N 17:52:37 43° ENE 17:58:00 10° SE
